Tracking 19490 objects as of 24-Jan-2019
HD Live streaming from Space Station
objects crossing your sky now

FENGYUN 1C DEB

Track FENGYUN 1C DEB now!
10-day predictions


NORAD ID: 30403
Int'l Code: 1999-025ADS
Perigee: 813.8 km
Apogee: 950.0 km
Inclination: 99.2 °
Period: 102.5 minutes
Semi major axis: 7252 km
RCS: 0.0223 m2 (small)
Launch date: May 10, 1999
Source: People's Republic of China (PRC)
Launch site: Taiyaun Space Center, China (TSC)

Note: This is SATELLITE DEBRIS
aabbcc
Your satellite tracking list
Your tracking list is empty




NASA's NSSDC Master Catalog

Two Line Element Set (TLE):
1 30403U 99025ADS 19024.01605323  .00000711  00000-0  44799-3 0  9996
2 30403  99.1928  34.2680 0093918 220.7691 138.6422 14.05516924613889
Source of the keplerian elements: AFSPC